Theta_e
335 336 335 335 334 334 334 332 330 328 326 325 324 323 322 321 321 320 320 319 319 319 319 319 318 318 318 317 317 316 315 315 314 313 312 311 310 309 308 308 307 306
335 336 335 334 334 334 332 330 328 327 325 324 323 322 321 320 319 318 318 318 318 318 318 317 317 316 316 315 315 315 314 314 312 311 311 310 309 309 308 307 306 304
335 335 334 334 334 332 330 327 326 325 324 322 322 321 320 319 318 318 317 317 317 317 317 316 316 315 314 314 314 314 314 313 311 310 310 309 308 308 306 304 303 303
334 334 334 333 333 330 327 325 324 323 322 321 320 320 319 318 318 317 317 317 317 316 316 315 315 314 314 314 314 313 313 312 310 309 309 308 307 305 303 302 302 303
333 333 333 332 330 327 326 325 323 322 321 320 319 319 319 318 317 317 316 316 316 316 315 315 314 313 313 314 313 313 313 311 309 309 308 307 304 303 302 302 303 304
332 331 331 330 327 326 324 323 322 321 321 320 319 318 318 317 317 316 316 315 315 315 315 314 313 312 312 313 313 313 312 310 309 309 307 304 302 302 302 302 303 303
329 328 328 327 325 324 323 321 320 320 320 319 318 317 317 317 316 316 315 315 314 314 314 313 312 312 312 312 313 312 311 310 309 307 305 302 301 301 301 301 302 302
327 327 325 324 322 322 321 320 319 319 319 318 317 317 316 316 316 315 315 314 314 313 312 312 311 311 311 311 311 311 310 308 307 305 302 301 300 300 300 301 301 301
325 324 323 322 321 320 319 318 318 318 318 317 317 316 316 315 315 315 314 314 313 312 311 311 311 310 310 310 310 309 308 306 304 302 300 300 300 300 300 300 300 300
322 321 321 320 319 318 318 317 317 317 317 316 316 315 315 314 314 314 314 313 312 311 310 310 309 309 309 308 308 307 306 304 302 300 300 300 300 300 300 299 299 299
319 319 319 319 318 317 317 317 316 316 315 315 315 314 314 313 313 313 313 312 311 310 309 308 308 308 307 306 306 305 303 301 300 299 300 300 299 299 299 299 299 299
318 318 319 318 317 316 316 316 315 315 314 314 313 313 313 312 312 312 312 311 310 309 308 307 307 306 305 304 303 302 300 300 299 299 299 299 299 299 299 299 299 299
317 318 317 317 316 315 315 315 314 314 313 313 313 313 312 311 311 311 311 311 309 308 308 307 305 304 302 301 300 300 299 299 299 299 299 299 299 299 299 299 299 299
317 317 316 315 315 314 314 313 313 313 312 312 311 311 310 310 310 311 310 309 308 307 307 306 303 301 300 300 299 298 298 298 298 298 298 298 298 298 299 299 299 299
316 315 315 314 314 313 313 313 312 312 311 310 309 309 309 310 310 310 309 308 307 306 305 303 301 299 299 298 298 297 297 297 297 298 298 298 298 298 298 298 298 298
315 314 314 313 313 312 312 311 310 310 309 308 308 308 309 309 309 309 308 307 306 305 302 300 299 298 298 297 297 297 297 297 297 297 298 298 298 298 298 298 297 297
314 314 313 312 312 312 311 310 309 308 308 308 308 309 309 309 309 308 307 306 305 302 300 298 298 297 297 297 297 297 297 297 297 297 297 297 297 297 298 298 298 297
313 312 311 311 311 311 310 309 308 307 307 307 308 309 309 308 308 307 306 304 302 299 298 298 297 297 297 297 297 297 297 297 297 297 297 297 297 297 297 297 297 297
312 311 311 311 310 309 309 308 307 306 307 307 308 308 308 308 307 306 304 302 299 298 298 297 297 297 297 297 297 297 297 297 297 297 297 297 296 296 296 296 296 296
311 311 310 310 309 308 308 307 306 306 306 306 307 308 308 307 306 305 302 299 297 297 297 297 297 297 297 297 297 297 297 297 297 296 296 296 296 296 296 296 296 296
310 310 309 308 308 307 307 306 306 305 305 306 307 308 307 306 305 304 301 298 297 297 297 297 297 297 297 297 297 297 297 296 296 296 296 296 296 296 296 296 295 295
310 309 307 307 307 307 306 306 305 305 305 305 306 307 307 305 304 302 300 298 297 297 297 297 297 296 296 297 297 297 297 297 296 296 296 296 296 296 296 296 295 295
309 308 307 306 306 306 306 305 305 305 304 305 306 306 306 304 303 302 301 299 299 299 299 298 298 297 296 296 297 297 297 297 296 296 296 296 296 296 296 295 295 295
309 308 307 306 306 306 306 304 304 303 304 304 305 306 306 304 302 301 301 300 300 300 300 300 299 297 296 296 297 297 297 297 297 296 296 296 296 296 296 295 295 295
308 308 307 306 306 306 305 304 302 302 303 303 304 306 306 305 303 301 301 301 301 301 301 300 299 297 296 296 297 296 297 296 296 296 296 296 296 296 295 295 295 294
309 308 307 307 306 306 304 303 301 301 302 302 303 304 305 305 304 303 302 302 302 302 302 301 300 297 296 296 296 296 297 297 296 296 296 296 296 296 295 295 295 294
Wind_Speed
16 19 20 20 20 21 23 23 23 23 21 19 17 14 12 10 7 5 6 7 7 8 9 9 8 8 9 9 9 11 13 15 16 15 14 15 14 14 14 13 13 13
19 20 20 20 22 22 23 23 23 22 20 18 16 14 12 10 8 8 8 9 10 11 11 10 9 9 10 10 11 14 16 17 17 15 15 16 15 14 15 13 13 12
20 21 21 21 23 24 24 24 23 21 20 17 15 13 12 10 10 9 10 10 11 11 10 10 11 12 13 14 15 17 18 17 17 15 15 16 14 14 15 13 13 13
21 22 21 22 23 25 25 25 23 21 19 17 15 13 12 11 10 10 11 10 11 11 11 11 13 14 14 15 16 18 18 17 16 14 15 16 15 15 15 14 14 15
22 23 22 23 24 26 26 24 23 21 19 17 16 13 12 11 11 11 12 11 11 11 12 13 14 13 13 14 16 17 17 16 14 13 14 16 15 15 15 15 16 17
22 23 24 25 26 26 26 24 23 21 19 18 16 14 13 12 12 12 12 12 12 13 14 14 14 13 13 14 15 16 15 14 13 12 14 16 15 16 16 16 17 18
23 24 26 27 27 27 26 24 23 21 20 18 16 14 13 13 13 13 13 13 13 14 14 13 12 13 13 13 15 15 14 13 12 13 15 16 16 17 18 17 18 19
26 26 27 27 28 26 25 24 23 21 19 17 16 15 14 14 15 15 14 14 14 13 12 12 12 13 13 13 14 14 14 13 12 13 15 16 18 19 19 19 20 20
29 29 28 28 27 25 24 24 22 20 18 17 17 17 16 16 15 16 15 14 14 13 12 12 13 14 14 13 13 13 14 14 13 14 16 18 20 21 21 21 22 23
31 31 30 28 26 25 24 23 21 20 18 17 18 18 18 17 16 16 15 15 15 15 15 15 15 15 13 13 12 13 14 15 15 17 19 20 21 21 22 23 24 24
32 32 30 27 26 24 24 22 21 20 18 18 19 19 18 17 16 16 16 16 17 17 18 17 15 13 13 13 13 14 15 17 18 20 21 21 21 21 22 22 23 23
32 31 29 27 25 24 23 21 20 19 19 18 18 18 17 16 17 18 18 18 19 19 18 17 14 12 13 15 16 17 19 20 21 22 21 21 21 20 20 20 21 20
31 30 28 27 25 24 23 21 20 19 19 18 17 16 16 17 19 21 20 20 21 20 18 15 14 14 16 19 20 21 22 22 22 22 21 21 20 19 18 18 18 18
30 29 28 27 25 24 23 22 21 20 19 18 16 15 17 20 22 23 23 22 21 19 17 15 15 18 21 23 24 23 23 22 21 21 20 19 19 18 17 17 16 16
30 29 28 27 26 25 24 23 22 21 19 18 17 18 21 23 24 24 24 24 21 19 17 16 19 22 24 25 25 24 23 22 21 20 19 18 18 17 17 17 16 16
30 29 28 27 27 27 26 25 23 22 20 19 20 22 24 25 25 25 25 24 21 19 18 20 23 25 25 25 24 23 22 22 21 20 19 18 17 17 16 16 16 16
30 29 29 29 29 28 26 25 24 22 22 22 23 24 26 26 27 27 25 23 21 20 21 24 26 26 25 24 23 22 21 21 20 19 18 18 17 16 15 14 14 14
29 29 30 29 29 28 27 25 23 23 24 24 25 25 27 27 28 27 25 22 21 23 25 27 26 25 24 23 21 20 19 18 18 18 17 17 16 16 16 15 14 13
30 30 30 30 29 28 27 25 24 24 25 25 25 26 27 28 28 26 24 23 23 26 28 27 25 24 22 21 20 19 17 16 16 16 15 15 16 16 16 16 15 14
30 30 31 31 31 29 28 26 25 25 25 25 26 27 28 29 28 26 25 25 26 28 28 26 24 23 21 20 19 17 16 15 15 14 14 14 15 15 15 15 14 14
30 31 31 31 31 30 28 27 26 26 26 26 26 27 29 29 27 26 27 27 28 29 28 25 23 21 20 18 17 16 15 14 13 13 14 14 14 13 13 13 13 13
30 31 31 31 31 30 28 27 27 26 26 26 26 27 29 29 27 26 28 29 29 28 27 24 22 20 18 16 15 14 13 13 12 13 13 13 13 12 12 12 11 12
30 31 31 31 31 30 29 27 26 25 25 26 27 28 30 29 27 27 28 28 28 26 24 23 21 19 17 15 14 13 12 11 11 12 12 12 12 11 11 11 11 11
31 32 32 31 31 30 29 27 26 25 25 26 27 29 30 29 28 28 27 26 25 24 23 21 19 18 16 14 13 12 11 10 10 10 11 11 10 10 10 10 11 11
32 32 32 32 31 29 28 26 25 25 25 26 27 28 29 29 29 28 26 25 23 21 21 20 19 18 16 14 12 11 10 9 9 9 10 10 9 9 9 9 10 10
33 33 32 31 30 28 26 25 24 24 26 27 28 28 29 29 28 27 26 24 22 20 19 19 19 18 16 13 12 10 9 8 8 8 9 9 8 8 8 8 9 9
Wind_Direction
195 192 186 178 173 172 168 164 162 158 154 152 147 140 134 125 115 103 95 97 106 116 119 121 118 114 109 104 102 101 101 102 101 100 97 91 85 76 68 63 58 56
191 189 183 174 170 168 164 162 160 155 150 147 142 136 129 122 112 103 101 108 115 118 119 118 112 107 106 105 106 107 108 106 103 99 93 85 76 68 61 56 54 54
187 185 179 173 168 163 160 157 154 151 147 142 138 133 127 121 114 109 110 116 120 120 119 115 111 108 108 110 111 110 109 107 102 98 89 79 69 61 56 52 55 56
180 178 175 173 167 160 156 153 149 147 145 139 135 132 129 124 118 117 119 122 124 122 121 118 116 115 114 115 114 111 109 107 105 97 86 76 64 57 56 57 61 62
174 173 172 169 161 155 154 151 149 148 144 139 136 134 131 127 125 125 126 128 127 126 127 125 122 120 119 118 116 114 113 110 104 92 80 73 63 60 62 63 65 66
169 166 164 161 156 154 153 150 149 148 144 141 138 136 134 132 132 133 132 131 129 130 131 128 124 122 120 120 119 117 116 110 100 85 76 72 68 68 68 67 67 67
159 156 157 155 153 153 151 149 148 145 143 141 138 137 139 138 138 137 136 134 131 131 131 128 126 123 121 122 120 118 115 105 92 80 77 76 75 74 72 70 70 69
153 153 153 151 149 149 148 147 146 143 142 142 140 141 143 144 143 140 139 138 134 133 133 131 127 123 123 122 120 118 113 102 90 82 82 83 81 77 75 73 73 71
150 150 149 148 148 147 146 144 142 141 144 145 143 144 146 145 144 142 141 139 135 134 133 131 127 125 125 123 121 119 111 101 93 89 89 88 84 80 78 76 75 73
147 145 146 147 145 143 142 141 139 142 147 148 146 147 147 146 145 145 144 141 137 134 132 130 128 126 125 122 120 117 109 103 98 95 92 89 85 82 79 77 76 75
140 140 143 143 141 139 138 139 142 147 150 150 149 149 147 147 147 148 147 144 139 136 133 131 128 127 125 122 119 114 109 106 102 97 93 89 86 83 81 79 77 75
136 139 141 141 140 139 140 144 148 150 151 151 151 150 148 148 149 149 150 146 141 138 135 131 127 126 124 122 119 115 111 107 101 97 92 89 87 84 81 80 77 74
135 139 142 142 142 143 145 149 151 151 150 149 150 151 149 149 149 149 148 144 141 138 135 129 125 124 124 122 119 115 110 106 100 97 93 89 87 83 81 79 74 70
140 143 144 145 144 145 148 150 150 150 148 148 150 151 150 150 149 147 143 141 140 137 132 126 125 126 126 122 118 113 109 104 100 97 94 91 87 83 79 75 70 66
146 146 145 145 145 146 148 149 150 149 148 148 149 148 147 147 146 144 142 141 139 134 128 126 127 127 126 121 116 112 108 104 100 97 94 92 89 86 80 75 71 66
147 146 146 147 146 147 147 148 149 147 147 147 146 145 145 145 145 145 144 141 136 131 128 129 129 126 123 120 115 111 107 104 101 98 95 93 89 87 83 78 73 68
146 146 147 147 146 146 146 147 147 146 146 145 144 145 146 146 146 144 141 138 133 131 131 130 128 125 122 119 114 110 107 104 101 98 95 91 87 84 81 77 72 66
148 147 146 144 145 146 147 147 147 146 145 144 144 147 147 146 145 141 138 137 134 132 131 130 128 125 122 119 114 110 108 104 101 99 94 89 85 81 78 74 69 64
150 148 145 145 147 149 149 148 147 147 146 146 146 148 148 146 143 140 137 137 135 133 132 130 128 126 123 119 114 111 109 106 103 100 96 91 85 81 77 73 69 63
149 147 147 147 149 150 148 148 149 149 148 148 148 149 149 147 143 141 139 137 135 134 133 132 130 128 125 120 115 111 108 109 107 103 99 92 85 82 78 73 68 60
148 148 147 147 149 150 149 150 151 150 150 150 150 150 151 148 144 142 141 137 135 135 134 133 132 131 128 122 117 113 109 109 109 105 100 92 86 84 80 75 69 61
147 146 145 147 150 151 151 152 152 153 153 152 151 151 151 148 145 145 144 140 137 137 135 134 134 134 133 127 119 115 113 111 109 105 100 95 91 88 84 79 71 62
148 147 146 148 152 152 152 153 154 155 155 154 152 152 151 149 145 146 147 145 143 142 140 138 137 137 137 133 125 122 120 115 110 107 103 99 97 94 88 80 70 60
151 150 150 152 154 154 154 155 155 155 157 157 156 154 153 151 148 147 149 148 148 149 147 144 142 141 141 138 132 131 128 120 115 111 108 104 103 101 92 80 68 58
152 153 154 156 157 157 156 156 156 156 158 159 158 155 155 154 152 150 151 152 153 154 153 152 149 146 145 143 140 138 134 129 125 118 113 111 109 106 98 82 68 59
156 157 159 160 160 159 158 157 157 157 158 158 156 155 156 156 156 156 155 157 161 161 161 161 157 151 149 150 149 145 139 137 138 130 121 117 112 107 99 86 71 60